Time,TemperatureF,DewpointF,PressureIn,WindDirection,WindDirectionDegrees,WindSpeedMPH,WindSpeedGustMPH,Humidity,HourlyPrecipIn,Conditions,Clouds,dailyrainin,SoftwareType,DateUTC
2013-04-12 07:59:00,56.6,55.6,29.49,West,259,5.0,14.0,96,0.00,,OVC OVC///CB,0.43,WUHU216DAVISVP2,2013-04-12 11:59:00,
2013-04-12 08:00:00,56.5,55.5,29.49,West,259,3.0,14.0,96,0.00,,OVC OVC///CB,0.43,WUHU216DAVISVP2,2013-04-12 12:00:00,
2013-04-12 08:05:00,55.7,54.7,29.50,West,278,7.0,14.0,96,0.00,,OVC OVC///CB,0.43,WUHU216DAVISVP2,2013-04-12 12:05:00,
2013-04-12 08:10:00,54.9,53.9,29.50,West,271,6.0,16.0,96,0.00,,OVC OVC///CB,0.43,WUHU216DAVISVP2,2013-04-12 12:10:00,
2013-04-12 08:15:00,54.3,53.3,29.50,NW,314,5.0,16.0,96,0.00,,OVC OVC///CB,0.43,WUHU216DAVISVP2,2013-04-12 12:15:00,
2013-04-12 08:20:00,53.7,52.7,29.50,WNW,299,8.0,16.0,96,0.00,,OVC OVC///CB,0.43,WUHU216DAVISVP2,2013-04-12 12:20:00,
2013-04-12 08:25:00,53.4,52.4,29.51,WNW,284,3.0,14.0,96,0.00,,OVC OVC///CB,0.43,WUHU216DAVISVP2,2013-04-12 12:25:00,
2013-04-12 08:30:00,53.2,52.5,29.51,WSW,248,4.0,14.0,97,0.00,,OVC OVC///CB,0.43,WUHU216DAVISVP2,2013-04-12 12:30:00,
2013-04-12 08:35:00,53.0,52.3,29.52,WNW,295,10.0,14.0,97,0.00,,OVC OVC///CB,0.43,WUHU216DAVISVP2,2013-04-12 12:35:00,
2013-04-12 08:40:00,52.3,51.0,29.52,WNW,291,7.0,14.0,95,0.00,,OVC OVC///CB,0.43,WUHU216DAVISVP2,2013-04-12 12:40:00,
2013-04-12 08:45:00,51.6,50.6,29.53,WNW,289,9.0,15.0,96,0.00,,OVC OVC///CB,0.43,WUHU216DAVISVP2,2013-04-12 12:45:00,
2013-04-12 08:50:00,50.9,49.9,29.52,West,260,10.0,18.0,96,0.00,,OVC OVC///CB,0.43,WUHU216DAVISVP2,2013-04-12 12:50:00,
2013-04-12 08:55:00,50.6,49.6,29.53,SW,231,7.0,18.0,96,0.00,,OVC OVC///CB,0.43,WUHU216DAVISVP2,2013-04-12 12:55:00,
2013-04-12 09:00:00,50.4,49.4,29.54,WNW,285,5.0,18.0,96,0.00,,OVC OVC///CB,0.43,WUHU216DAVISVP2,2013-04-12 13:00:00,
2013-04-12 09:05:00,50.0,48.7,29.54,WSW,255,15.0,18.0,95,0.00,,OVC OVC///CB,0.43,WUHU216DAVISVP2,2013-04-12 13:05:00,
2013-04-12 09:10:00,49.7,48.4,29.55,WNW,285,11.0,15.0,95,0.00,,OVC OVC///CB,0.43,WUHU216DAVISVP2,2013-04-12 13:10:00,
2013-04-12 09:15:00,49.3,48.0,29.56,WNW,284,5.0,20.0,95,0.00,,OVC OVC///CB,0.43,WUHU216DAVISVP2,2013-04-12 13:15:00,
2013-04-12 09:20:00,48.9,47.6,29.57,WNW,300,8.0,20.0,95,0.00,,OVC OVC///CB,0.43,WUHU216DAVISVP2,2013-04-12 13:20:00,
2013-04-12 09:25:00,48.6,47.3,29.57,SW,229,6.0,20.0,95,0.00,,OVC OVC///CB,0.43,WUHU216DAVISVP2,2013-04-12 13:25:00,
2013-04-12 09:30:00,48.1,46.8,29.57,West,271,5.0,17.0,95,0.00,,OVC OVC///CB,0.43,WUHU216DAVISVP2,2013-04-12 13:30:00,
2013-04-12 09:35:00,47.9,46.6,29.58,West,278,10.0,17.0,95,0.00,,OVC OVC///CB,0.43,WUHU216DAVISVP2,2013-04-12 13:35:00,
2013-04-12 09:40:00,47.4,46.1,29.58,West,264,7.0,22.0,95,0.00,,OVC OVC///CB,0.43,WUHU216DAVISVP2,2013-04-12 13:40:00,
2013-04-12 09:45:00,47.2,46.2,29.59,SW,235,11.0,22.0,96,0.00,,OVC OVC///CB,0.43,WUHU216DAVISVP2,2013-04-12 13:45:00,
2013-04-12 09:50:00,46.8,45.8,29.59,West,264,9.0,22.0,96,0.00,,OVC OVC///CB,0.43,WUHU216DAVISVP2,2013-04-12 13:50:00,
2013-04-12 09:55:00,46.4,45.1,29.59,WSW,252,5.0,22.0,95,0.00,,OVC OVC///CB,0.43,WUHU216DAVISVP2,2013-04-12 13:55:00,
2013-04-12 10:00:00,46.2,44.9,29.59,WSW,243,9.0,17.0,95,0.00,,OVC OVC///CB,0.43,WUHU216DAVISVP2,2013-04-12 14:00:00,
2013-04-12 10:05:00,46.0,44.7,29.60,West,278,6.0,15.0,95,0.00,,OVC OVC///CB,0.43,WUHU216DAVISVP2,2013-04-12 14:05:00,
2013-04-12 10:10:00,45.8,44.5,29.60,West,260,6.0,18.0,95,0.00,,OVC OVC///CB,0.43,WUHU216DAVISVP2,2013-04-12 14:10:00,
2013-04-12 10:15:00,45.6,44.0,29.60,WSW,252,5.0,19.0,94,0.00,,OVC OVC///CB,0.43,WUHU216DAVISVP2,2013-04-12 14:15:00,
2013-04-12 10:20:00,45.5,44.2,29.61,West,273,3.0,19.0,95,0.00,,OVC OVC///CB,0.43,WUHU216DAVISVP2,2013-04-12 14:20:00,
2013-04-12 10:25:00,45.4,44.1,29.61,WSW,255,3.0,18.0,95,0.00,,OVC OVC///CB,0.43,WUHU216DAVISVP2,2013-04-12 14:25:00,
2013-04-12 10:30:00,45.2,43.9,29.62,WSW,249,4.0,18.0,95,0.00,,OVC OVC///CB,0.43,WUHU216DAVISVP2,2013-04-12 14:30:00,
2013-04-12 10:35:00,45.0,43.7,29.62,West,263,6.0,15.0,95,0.00,,OVC OVC///CB,0.43,WUHU216DAVISVP2,2013-04-12 14:35:00,
2013-04-12 10:40:00,45.0,43.7,29.62,WNW,285,3.0,15.0,95,0.00,,OVC OVC///CB,0.43,WUHU216DAVISVP2,2013-04-12 14:40:00,
2013-04-12 10:45:00,45.2,43.9,29.62,NW,316,8.0,15.0,95,0.00,,OVC OVC///CB,0.43,WUHU216DAVISVP2,2013-04-12 14:45:00,
2013-04-12 10:50:00,45.3,44.0,29.62,West,278,8.0,15.0,95,0.00,,OVC OVC///CB,0.43,WUHU216DAVISVP2,2013-04-12 14:50:00,
2013-04-12 10:55:00,45.4,43.8,29.63,West,279,5.0,14.0,94,0.00,,OVC OVC///CB,0.43,WUHU216DAVISVP2,2013-04-12 14:55:00,
2013-04-12 11:00:00,45.5,43.7,29.63,NW,312,4.0,15.0,93,0.00,,OVC OVC///CB,0.43,WUHU216DAVISVP2,2013-04-12 15:00:00,
2013-04-12 11:05:00,45.6,43.5,29.63,WSW,241,9.0,15.0,92,0.00,,OVC OVC///CB,0.43,WUHU216DAVISVP2,2013-04-12 15:05:00,
2013-04-12 11:10:00,45.8,44.0,29.64,WSW,251,7.0,15.0,93,0.00,,OVC OVC///CB,0.43,WUHU216DAVISVP2,2013-04-12 15:10:00,
2013-04-12 11:15:00,45.9,44.1,29.64,SW,222,7.0,15.0,93,0.00,,OVC OVC///CB,0.43,WUHU216DAVISVP2,2013-04-12 15:15:00,
2013-04-12 11:20:00,46.2,44.4,29.64,WSW,255,4.0,12.0,93,0.00,,OVC OVC///CB,0.43,WUHU216DAVISVP2,2013-04-12 15:20:00,
2013-04-12 11:25:00,46.6,44.5,29.64,SW,221,4.0,12.0,92,0.00,,OVC OVC///CB,0.43,WUHU216DAVISVP2,2013-04-12 15:25:00,
2013-04-12 11:30:00,46.9,44.8,29.64,WSW,255,3.0,12.0,92,0.00,,OVC OVC///CB,0.43,WUHU216DAVISVP2,2013-04-12 15:30:00,
2013-04-12 11:35:00,46.8,44.1,29.64,WSW,249,6.0,11.0,90,0.00,,OVC OVC///CB,0.43,WUHU216DAVISVP2,2013-04-12 15:35:00,
2013-04-12 11:40:00,46.7,44.3,29.64,West,280,3.0,13.0,91,0.00,,OVC OVC///CB,0.43,WUHU216DAVISVP2,2013-04-12 15:40:00,
2013-04-12 11:45:00,46.7,44.3,29.65,WNW,285,7.0,13.0,91,0.00,,OVC OVC///CB,0.43,WUHU216DAVISVP2,2013-04-12 15:45:00,
2013-04-12 11:50:00,46.7,44.6,29.65,SW,232,4.0,13.0,92,0.00,,OVC OVC///CB,0.43,WUHU216DAVISVP2,2013-04-12 15:50:00,
2013-04-12 11:55:00,46.8,44.7,29.65,West,263,6.0,14.0,92,0.00,,OVC OVC///CB,0.43,WUHU216DAVISVP2,2013-04-12 15:55:00,
2013-04-12 12:00:00,47.2,45.3,29.65,West,259,8.0,14.0,93,0.00,,OVC OVC///CB,0.43,WUHU216DAVISVP2,2013-04-12 16:00:00,
2013-04-12 12:05:00,47.5,45.4,29.65,West,269,4.0,13.0,92,0.00,,OVC OVC///CB,0.43,WUHU216DAVISVP2,2013-04-12 16:05:00,
2013-04-12 12:10:00,47.6,44.9,29.65,WSW,245,3.0,14.0,90,0.00,,OVC OVC///CB,0.43,WUHU216DAVISVP2,2013-04-12 16:10:00,
2013-04-12 12:15:00,48.1,45.4,29.65,SSW,213,6.0,14.0,90,0.00,,OVC OVC///CB,0.43,WUHU216DAVISVP2,2013-04-12 16:15:00,
2013-04-12 12:20:00,48.4,45.7,29.65,WSW,241,9.0,17.0,90,0.00,,OVC OVC///CB,0.43,WUHU216DAVISVP2,2013-04-12 16:20:00,
2013-04-12 12:25:00,48.7,45.7,29.65,SW,223,10.0,17.0,89,0.00,,OVC OVC///CB,0.43,WUHU216DAVISVP2,2013-04-12 16:25:00,
2013-04-12 12:30:00,48.9,46.2,29.65,WSW,252,8.0,18.0,90,0.00,,OVC OVC///CB,0.43,WUHU216DAVISVP2,2013-04-12 16:30:00,
2013-04-12 12:35:00,49.1,46.4,29.65,West,271,5.0,18.0,90,0.00,,OVC OVC///CB,0.43,WUHU216DAVISVP2,2013-04-12 16:35:00,
2013-04-12 12:40:00,48.4,46.3,29.66,WNW,288,2.0,18.0,92,0.00,,OVC OVC///CB,0.43,WUHU216DAVISVP2,2013-04-12 16:40:00,
2013-04-12 12:45:00,47.7,45.8,29.66,West,281,12.0,18.0,93,0.00,,OVC OVC///CB,0.43,WUHU216DAVISVP2,2013-04-12 16:45:00,
2013-04-12 12:50:00,47.6,45.7,29.66,SW,226,9.0,16.0,93,0.00,,OVC OVC///CB,0.43,WUHU216DAVISVP2,2013-04-12 16:50:00,
2013-04-12 12:55:00,47.7,45.8,29.66,WSW,242,4.0,20.0,93,0.00,,OVC OVC///CB,0.43,WUHU216DAVISVP2,2013-04-12 16:55:00,
2013-04-12 13:00:00,48.5,46.4,29.66,West,259,3.0,20.0,92,0.00,,OVC OVC///CB,0.43,WUHU216DAVISVP2,2013-04-12 17:00:00,
2013-04-12 13:05:00,49.0,45.7,29.65,WSW,240,11.0,19.0,88,0.00,,OVC OVC///CB,0.43,WUHU216DAVISVP2,2013-04-12 17:05:00,
2013-04-12 13:10:00,49.4,45.5,29.66,WSW,250,9.0,16.0,86,0.00,,OVC OVC///CB,0.43,WUHU216DAVISVP2,2013-04-12 17:10:00,
2013-04-12 13:15:00,49.6,45.1,29.66,SW,229,10.0,17.0,84,0.00,,OVC OVC///CB,0.43,WUHU216DAVISVP2,2013-04-12 17:15:00,
2013-04-12 13:20:00,49.6,44.8,29.66,SSW,212,12.0,23.0,83,0.00,,OVC OVC///CB,0.43,WUHU216DAVISVP2,2013-04-12 17:20:00,
2013-04-12 13:25:00,49.4,44.6,29.66,West,270,10.0,23.0,83,0.00,,OVC OVC///CB,0.43,WUHU216DAVISVP2,2013-04-12 17:25:00,
2013-04-12 13:30:00,49.1,44.0,29.66,SW,232,7.0,22.0,82,0.00,,OVC OVC///CB,0.43,WUHU216DAVISVP2,2013-04-12 17:30:00,
2013-04-12 13:35:00,48.9,44.1,29.67,WSW,245,12.0,20.0,83,0.00,,OVC OVC///CB,0.43,WUHU216DAVISVP2,2013-04-12 17:35:00,
2013-04-12 13:40:00,48.8,43.7,29.66,West,259,15.0,20.0,82,0.00,,OVC OVC///CB,0.43,WUHU216DAVISVP2,2013-04-12 17:40:00,
2013-04-12 13:45:00,49.0,43.6,29.67,WSW,239,9.0,17.0,81,0.00,,OVC OVC///CB,0.43,WUHU216DAVISVP2,2013-04-12 17:45:00,
2013-04-12 13:50:00,49.1,43.0,29.67,WSW,243,15.0,19.0,79,0.00,,OVC OVC///CB,0.43,WUHU216DAVISVP2,2013-04-12 17:50:00,
2013-04-12 13:56:00,49.0,42.9,29.67,WSW,246,12.0,20.0,79,0.00,,OVC OVC///CB,0.43,WUHU216DAVISVP2,2013-04-12 17:56:00,
2013-04-12 14:01:00,48.9,43.8,29.67,WSW,257,8.0,20.0,82,0.00,,OVC OVC///CB,0.43,WUHU216DAVISVP2,2013-04-12 18:01:00,
2013-04-12 14:06:00,48.4,43.3,29.68,West,279,8.0,19.0,82,0.00,,OVC OVC///CB,0.43,WUHU216DAVISVP2,2013-04-12 18:06:00,
2013-04-12 14:11:00,48.0,43.2,29.68,WSW,238,8.0,19.0,83,0.00,,OVC OVC///CB,0.43,WUHU216DAVISVP2,2013-04-12 18:11:00,
2013-04-12 14:16:00,47.7,43.2,29.68,WNW,285,12.0,19.0,84,0.00,,OVC OVC///CB,0.43,WUHU216DAVISVP2,2013-04-12 18:16:00,
2013-04-12 14:21:00,47.2,42.7,29.69,WNW,297,8.0,19.0,84,0.00,,OVC OVC///CB,0.43,WUHU216DAVISVP2,2013-04-12 18:21:00,
2013-04-12 14:27:00,46.6,42.1,29.69,West,267,10.0,26.0,84,0.00,,OVC OVC///CB,0.43,WUHU216DAVISVP2,2013-04-12 18:27:00,
2013-04-12 15:26:00,44.1,39.4,29.72,WSW,242,7.0,18.0,83,0.00,,OVC OVC///CB,0.43,WUHU216DAVISVP2,2013-04-12 19:26:00,
2013-04-12 15:31:00,43.8,38.8,29.72,West,259,16.0,20.0,82,0.00,,OVC OVC///CB,0.43,WUHU216DAVISVP2,2013-04-12 19:31:00,
2013-04-12 15:36:00,43.7,38.7,29.72,West,271,10.0,20.0,82,0.00,,OVC OVC///CB,0.43,WUHU216DAVISVP2,2013-04-12 19:36:00,
2013-04-12 15:41:00,43.7,38.4,29.72,West,269,10.0,20.0,81,0.00,,OVC OVC///CB,0.43,WUHU216DAVISVP2,2013-04-12 19:41:00,
2013-04-12 15:47:00,43.7,38.4,29.72,WSW,256,4.0,20.0,81,0.00,,OVC OVC///CB,0.43,WUHU216DAVISVP2,2013-04-12 19:47:00,
2013-04-12 15:52:00,44.0,38.7,29.72,West,266,3.0,19.0,81,0.00,,OVC OVC///CB,0.43,WUHU216DAVISVP2,2013-04-12 19:52:00,
2013-04-12 15:57:00,44.3,39.0,29.73,West,273,12.0,19.0,81,0.00,,OVC OVC///CB,0.43,WUHU216DAVISVP2,2013-04-12 19:57:00,
2013-04-12 16:02:00,44.6,39.0,29.73,SW,219,14.0,17.0,80,0.00,,OVC OVC///CB,0.43,WUHU216DAVISVP2,2013-04-12 20:02:00,
2013-04-12 16:07:00,44.5,38.6,29.73,WNW,298,6.0,17.0,79,0.00,,OVC OVC///CB,0.43,WUHU216DAVISVP2,2013-04-12 20:07:00,
2013-04-12 16:12:00,44.5,38.9,29.73,West,271,14.0,17.0,80,0.00,,OVC OVC///CB,0.43,WUHU216DAVISVP2,2013-04-12 20:12:00,
2013-04-12 16:17:00,44.3,38.4,29.73,WSW,240,10.0,22.0,79,0.00,,OVC OVC///CB,0.43,WUHU216DAVISVP2,2013-04-12 20:17:00,
2013-04-12 16:22:00,44.0,38.4,29.74,SSW,195,8.0,22.0,80,0.00,,OVC OVC///CB,0.43,WUHU216DAVISVP2,2013-04-12 20:22:00,
2013-04-12 16:27:00,43.8,38.5,29.74,West,259,5.0,23.0,81,0.00,,OVC OVC///CB,0.43,WUHU216DAVISVP2,2013-04-12 20:27:00,
2013-04-12 16:32:00,43.5,38.5,29.75,WSW,241,6.0,23.0,82,0.00,,OVC OVC///CB,0.43,WUHU216DAVISVP2,2013-04-12 20:32:00,
2013-04-12 16:37:00,43.4,38.4,29.75,SSW,208,11.0,23.0,82,0.00,,OVC OVC///CB,0.43,WUHU216DAVISVP2,2013-04-12 20:37:00,
2013-04-12 16:42:00,43.2,38.2,29.75,West,278,6.0,23.0,82,0.00,,OVC OVC///CB,0.43,WUHU216DAVISVP2,2013-04-12 20:42:00,
2013-04-12 16:47:00,42.9,38.5,29.75,West,274,6.0,18.0,84,0.00,,OVC OVC///CB,0.43,WUHU216DAVISVP2,2013-04-12 20:47:00,
2013-04-12 16:52:00,42.3,38.5,29.76,West,269,13.0,23.0,86,0.00,,OVC OVC///CB,0.43,WUHU216DAVISVP2,2013-04-12 20:52:00,
2013-04-12 16:57:00,41.8,38.3,29.76,WSW,253,4.0,23.0,87,0.00,,OVC OVC///CB,0.43,WUHU216DAVISVP2,2013-04-12 20:57:00,
2013-04-12 17:02:00,41.5,37.4,29.77,West,274,7.0,22.0,85,0.00,,OVC OVC///CB,0.43,WUHU216DAVISVP2,2013-04-12 21:02:00,
2013-04-12 17:07:00,41.4,37.0,29.77,West,269,5.0,22.0,84,0.00,,OVC OVC///CB,0.43,WUHU216DAVISVP2,2013-04-12 21:07:00,
2013-04-12 17:12:00,41.4,37.0,29.77,West,269,4.0,19.0,84,0.00,,OVC OVC///CB,0.43,WUHU216DAVISVP2,2013-04-12 21:12:00,
2013-04-12 17:17:00,41.6,36.9,29.78,SW,232,5.0,17.0,83,0.00,,OVC OVC///CB,0.43,WUHU216DAVISVP2,2013-04-12 21:17:00,
2013-04-12 17:22:00,41.8,37.1,29.78,WSW,253,4.0,14.0,83,0.00,,OVC OVC///CB,0.43,WUHU216DAVISVP2,2013-04-12 21:22:00,
2013-04-12 17:27:00,42.0,37.3,29.78,West,274,8.0,14.0,83,0.00,,OVC OVC///CB,0.43,WUHU216DAVISVP2,2013-04-12 21:27:00,
2013-04-12 17:32:00,42.0,36.7,29.79,WSW,255,5.0,14.0,81,0.00,,OVC OVC///CB,0.43,WUHU216DAVISVP2,2013-04-12 21:32:00,
2013-04-12 17:37:00,42.0,36.4,29.79,NW,309,3.0,25.0,80,0.00,,OVC OVC///CB,0.43,WUHU216DAVISVP2,2013-04-12 21:37:00,
2013-04-12 17:42:00,42.0,36.1,29.79,WSW,243,6.0,25.0,79,0.00,,OVC OVC///CB,0.43,WUHU216DAVISVP2,2013-04-12 21:42:00,
2013-04-12 17:47:00,42.0,36.1,29.79,West,265,5.0,25.0,79,0.00,,OVC OVC///CB,0.43,WUHU216DAVISVP2,2013-04-12 21:47:00,
2013-04-12 17:52:00,42.0,35.8,29.79,SW,235,10.0,25.0,78,0.00,,OVC OVC///CB,0.43,WUHU216DAVISVP2,2013-04-12 21:52:00,
2013-04-12 17:57:00,42.0,35.8,29.80,WSW,256,3.0,18.0,78,0.00,,OVC OVC///CB,0.43,WUHU216DAVISVP2,2013-04-12 21:57:00,
2013-04-12 18:02:00,41.9,36.0,29.80,West,279,5.0,13.0,79,0.00,,OVC OVC///CB,0.43,WUHU216DAVISVP2,2013-04-12 22:02:00,
2013-04-12 18:07:00,42.0,36.1,29.80,WSW,239,4.0,12.0,79,0.00,,OVC OVC///CB,0.43,WUHU216DAVISVP2,2013-04-12 22:07:00,
2013-04-12 18:12:00,42.0,36.1,29.80,WSW,253,4.0,11.0,79,0.00,,OVC OVC///CB,0.43,WUHU216DAVISVP2,2013-04-12 22:12:00,
2013-04-12 18:18:00,42.0,36.1,29.80,WSW,252,6.0,10.0,79,0.00,,OVC OVC///CB,0.43,WUHU216DAVISVP2,2013-04-12 22:18:00,
2013-04-12 18:23:00,42.0,36.1,29.80,West,263,2.0,10.0,79,0.00,,OVC OVC///CB,0.43,WUHU216DAVISVP2,2013-04-12 22:23:00,
2013-04-12 18:28:00,42.0,36.1,29.80,West,274,1.0,10.0,79,0.00,,OVC OVC///CB,0.43,WUHU216DAVISVP2,2013-04-12 22:28:00,
2013-04-12 18:33:00,42.0,36.1,29.80,WSW,248,4.0,9.0,79,0.00,,OVC OVC///CB,0.43,WUHU216DAVISVP2,2013-04-12 22:33:00,
2013-04-12 18:38:00,41.9,36.0,29.81,WSW,246,4.0,9.0,79,0.00,,OVC OVC///CB,0.43,WUHU216DAVISVP2,2013-04-12 22:38:00,
2013-04-12 18:43:00,42.0,36.1,29.81,WSW,250,3.0,9.0,79,0.00,,OVC OVC///CB,0.43,WUHU216DAVISVP2,2013-04-12 22:43:00,
2013-04-12 18:48:00,42.0,36.1,29.81,SW,219,4.0,9.0,79,0.00,,OVC OVC///CB,0.43,WUHU216DAVISVP2,2013-04-12 22:48:00,
2013-04-12 18:53:00,42.0,36.1,29.81,West,269,2.0,9.0,79,0.00,,OVC OVC///CB,0.43,WUHU216DAVISVP2,2013-04-12 22:53:00,
2013-04-12 18:58:00,41.9,36.0,29.81,WSW,248,6.0,9.0,79,0.00,,OVC OVC///CB,0.43,WUHU216DAVISVP2,2013-04-12 22:58:00,
2013-04-12 19:03:00,41.9,36.0,29.82,WNW,287,2.0,9.0,79,0.00,,OVC OVC///CB,0.43,WUHU216DAVISVP2,2013-04-12 23:03:00,
2013-04-12 19:08:00,42.0,36.4,29.82,SW,218,0.0,9.0,80,0.00,,OVC OVC///CB,0.43,WUHU216DAVISVP2,2013-04-12 23:08:00,
2013-04-12 19:13:00,41.9,36.0,29.82,WNW,297,3.0,8.0,79,0.00,,OVC OVC///CB,0.43,WUHU216DAVISVP2,2013-04-12 23:13:00,
2013-04-12 19:18:00,41.8,36.2,29.82,WSW,245,5.0,7.0,80,0.00,,OVC OVC///CB,0.43,WUHU216DAVISVP2,2013-04-12 23:18:00,
2013-04-12 19:23:00,41.8,36.2,29.82,West,270,4.0,7.0,80,0.00,,OVC OVC///CB,0.43,WUHU216DAVISVP2,2013-04-12 23:23:00,
2013-04-12 19:28:00,41.8,36.5,29.82,WSW,251,3.0,7.0,81,0.00,,OVC OVC///CB,0.43,WUHU216DAVISVP2,2013-04-12 23:28:00,
2013-04-12 19:33:00,41.7,36.1,29.82,West,266,4.0,8.0,80,0.00,,OVC OVC///CB,0.43,WUHU216DAVISVP2,2013-04-12 23:33:00,
2013-04-12 19:38:00,41.7,36.4,29.82,WNW,284,3.0,8.0,81,0.00,,OVC OVC///CB,0.43,WUHU216DAVISVP2,2013-04-12 23:38:00,
2013-04-12 19:43:00,41.6,36.6,29.82,West,280,5.0,8.0,82,0.00,,OVC OVC///CB,0.43,WUHU216DAVISVP2,2013-04-12 23:43:00,
2013-04-12 19:48:00,41.3,36.6,29.83,WSW,245,1.0,8.0,83,0.00,,OVC OVC///CB,0.43,WUHU216DAVISVP2,2013-04-12 23:48:00,
2013-04-12 19:53:00,41.2,36.8,29.82,WNW,301,1.0,7.0,84,0.00,,OVC OVC///CB,0.43,WUHU216DAVISVP2,2013-04-12 23:53:00,
2013-04-12 19:58:00,41.1,37.0,29.83,WSW,245,4.0,7.0,85,0.00,,OVC OVC///CB,0.43,WUHU216DAVISVP2,2013-04-12 23:58:00,
2013-04-12 20:03:00,41.0,36.9,29.82,NW,309,3.0,7.0,85,0.00,,OVC OVC///CB,0.43,WUHU216DAVISVP2,2013-04-13 00:03:00,
2013-04-12 20:08:00,40.9,36.8,29.83,WSW,255,2.0,7.0,85,0.00,,OVC OVC///CB,0.43,WUHU216DAVISVP2,2013-04-13 00:08:00,
2013-04-12 20:13:00,40.9,37.1,29.83,WNW,288,5.0,9.0,86,0.00,,OVC OVC///CB,0.43,WUHU216DAVISVP2,2013-04-13 00:13:00,
2013-04-12 20:18:00,40.8,37.0,29.83,WSW,240,4.0,9.0,86,0.00,,OVC OVC///CB,0.43,WUHU216DAVISVP2,2013-04-13 00:18:00,
2013-04-12 20:23:00,40.7,37.2,29.83,WSW,243,2.0,9.0,87,0.00,,OVC OVC///CB,0.43,WUHU216DAVISVP2,2013-04-13 00:23:00,
2013-04-12 20:28:00,40.6,37.1,29.83,WSW,245,3.0,9.0,87,0.00,,OVC OVC///CB,0.43,WUHU216DAVISVP2,2013-04-13 00:28:00,
2013-04-12 20:33:00,40.5,37.3,29.84,West,278,5.0,8.0,88,0.00,,OVC OVC///CB,0.43,WUHU216DAVISVP2,2013-04-13 00:33:00,
2013-04-12 20:38:00,40.3,37.4,29.84,WSW,238,2.0,8.0,89,0.00,,OVC OVC///CB,0.43,WUHU216DAVISVP2,2013-04-13 00:38:00,
2013-04-12 20:43:00,40.1,37.7,29.84,WNW,294,2.0,8.0,91,0.00,,OVC OVC///CB,0.43,WUHU216DAVISVP2,2013-04-13 00:43:00,
2013-04-12 20:48:00,40.0,37.9,29.84,WSW,243,2.0,8.0,92,0.00,,OVC OVC///CB,0.43,WUHU216DAVISVP2,2013-04-13 00:48:00,
2013-04-12 20:53:00,39.9,38.1,29.84,West,276,2.0,8.0,93,0.00,,OVC OVC///CB,0.43,WUHU216DAVISVP2,2013-04-13 00:53:00,
2013-04-12 20:58:00,39.7,37.9,29.84,SW,226,0.0,7.0,93,0.00,,OVC OVC///CB,0.43,WUHU216DAVISVP2,2013-04-13 00:58:00,
2013-04-12 21:03:00,39.6,37.8,29.85,West,260,0.0,6.0,93,0.00,,OVC OVC///CB,0.43,WUHU216DAVISVP2,2013-04-13 01:03:00,
2013-04-12 21:08:00,39.6,38.1,29.85,WNW,283,2.0,5.0,94,0.00,,OVC OVC///CB,0.43,WUHU216DAVISVP2,2013-04-13 01:08:00,
2013-04-12 21:13:00,39.5,38.0,29.85,WNW,285,1.0,5.0,94,0.00,,OVC OVC///CB,0.43,WUHU216DAVISVP2,2013-04-13 01:13:00,
2013-04-12 21:18:00,39.5,38.0,29.85,West,269,1.0,5.0,94,0.00,,OVC OVC///CB,0.43,WUHU216DAVISVP2,2013-04-13 01:18:00,
2013-04-12 21:23:00,39.5,38.0,29.85,WSW,257,0.0,5.0,94,0.00,,OVC OVC///CB,0.43,WUHU216DAVISVP2,2013-04-13 01:23:00,
2013-04-12 21:28:00,39.5,38.0,29.85,WNW,283,1.0,5.0,94,0.00,,OVC OVC///CB,0.43,WUHU216DAVISVP2,2013-04-13 01:28:00,
2013-04-12 21:33:00,39.5,38.0,29.85,WSW,238,0.0,3.0,94,0.00,,OVC OVC///CB,0.43,WUHU216DAVISVP2,2013-04-13 01:33:00,
2013-04-12 21:38:00,39.5,38.0,29.85,SW,229,1.0,3.0,94,0.00,,OVC OVC///CB,0.43,WUHU216DAVISVP2,2013-04-13 01:38:00,
2013-04-12 21:43:00,39.5,38.0,29.85,West,269,1.0,3.0,94,0.00,,OVC OVC///CB,0.43,WUHU216DAVISVP2,2013-04-13 01:43:00,
2013-04-12 21:48:00,39.5,38.0,29.86,WSW,255,0.0,3.0,94,0.00,,OVC OVC///CB,0.43,WUHU216DAVISVP2,2013-04-13 01:48:00,
2013-04-12 21:53:00,39.6,38.1,29.85,SW,232,0.0,3.0,94,0.00,,OVC OVC///CB,0.43,WUHU216DAVISVP2,2013-04-13 01:53:00,
2013-04-12 21:58:00,39.5,38.0,29.86,WSW,239,1.0,2.0,94,0.00,,OVC OVC///CB,0.43,WUHU216DAVISVP2,2013-04-13 01:58:00,
2013-04-12 22:03:00,39.6,38.1,29.86,WSW,238,1.0,3.0,94,0.00,,OVC OVC///CB,0.43,WUHU216DAVISVP2,2013-04-13 02:03:00,
2013-04-12 22:08:00,39.6,38.1,29.86,WSW,243,2.0,4.0,94,0.00,,OVC OVC///CB,0.43,WUHU216DAVISVP2,2013-04-13 02:08:00,
2013-04-12 22:13:00,39.6,38.1,29.86,WSW,248,2.0,4.0,94,0.00,,OVC OVC///CB,0.43,WUHU216DAVISVP2,2013-04-13 02:13:00,
2013-04-12 22:18:00,39.6,37.8,29.86,SW,230,1.0,4.0,93,0.00,,OVC OVC///CB,0.43,WUHU216DAVISVP2,2013-04-13 02:18:00,
2013-04-12 22:23:00,39.7,38.2,29.86,SW,226,1.0,4.0,94,0.00,,OVC OVC///CB,0.43,WUHU216DAVISVP2,2013-04-13 02:23:00,
2013-04-12 22:28:00,39.7,37.9,29.86,WSW,249,2.0,5.0,93,0.00,,OVC OVC///CB,0.43,WUHU216DAVISVP2,2013-04-13 02:28:00,
2013-04-12 22:33:00,39.8,38.0,29.87,WSW,241,4.0,5.0,93,0.00,,OVC OVC///CB,0.43,WUHU216DAVISVP2,2013-04-13 02:33:00,
2013-04-12 22:38:00,39.9,38.1,29.87,SW,229,4.0,7.0,93,0.00,,OVC OVC///CB,0.43,WUHU216DAVISVP2,2013-04-13 02:38:00,
2013-04-12 22:43:00,40.0,37.9,29.86,WSW,243,4.0,7.0,92,0.00,,OVC OVC///CB,0.43,WUHU216DAVISVP2,2013-04-13 02:43:00,
2013-04-12 22:48:00,40.1,38.0,29.87,SW,219,4.0,7.0,92,0.00,,OVC OVC///CB,0.43,WUHU216DAVISVP2,2013-04-13 02:48:00,
2013-04-12 22:53:00,40.2,37.8,29.86,SW,221,3.0,7.0,91,0.00,,OVC OVC///CB,0.43,WUHU216DAVISVP2,2013-04-13 02:53:00,
2013-04-12 22:58:00,40.3,37.9,29.86,SW,226,3.0,5.0,91,0.00,,OVC OVC///CB,0.43,WUHU216DAVISVP2,2013-04-13 02:58:00,
2013-04-12 23:03:00,40.4,38.0,29.86,WSW,250,3.0,6.0,91,0.00,,OVC OVC///CB,0.43,WUHU216DAVISVP2,2013-04-13 03:03:00,
2013-04-12 23:08:00,40.4,37.8,29.86,WSW,257,2.0,6.0,90,0.00,,OVC OVC///CB,0.43,WUHU216DAVISVP2,2013-04-13 03:08:00,
2013-04-12 23:13:00,40.5,37.9,29.86,WSW,245,3.0,8.0,90,0.00,,OVC OVC///CB,0.43,WUHU216DAVISVP2,2013-04-13 03:13:00,
2013-04-12 23:18:00,40.5,37.6,29.86,SW,221,4.0,8.0,89,0.00,,OVC OVC///CB,0.43,WUHU216DAVISVP2,2013-04-13 03:18:00,
2013-04-12 23:23:00,40.6,37.7,29.86,SW,223,2.0,8.0,89,0.00,,OVC OVC///CB,0.43,WUHU216DAVISVP2,2013-04-13 03:23:00,
2013-04-12 23:28:00,40.6,37.4,29.86,SW,235,3.0,8.0,88,0.00,,OVC OVC///CB,0.43,WUHU216DAVISVP2,2013-04-13 03:28:00,
2013-04-12 23:33:00,40.7,37.5,29.86,WSW,238,3.0,8.0,88,0.00,,OVC OVC///CB,0.43,WUHU216DAVISVP2,2013-04-13 03:33:00,
2013-04-12 23:38:00,40.7,37.5,29.86,WSW,245,4.0,8.0,88,0.00,,OVC OVC///CB,0.43,WUHU216DAVISVP2,2013-04-13 03:38:00,
2013-04-12 23:43:00,40.7,37.5,29.86,WSW,250,2.0,8.0,88,0.00,,OVC OVC///CB,0.43,WUHU216DAVISVP2,2013-04-13 03:43:00,
2013-04-12 23:48:00,40.7,37.5,29.86,SSW,212,3.0,8.0,88,0.00,,OVC OVC///CB,0.43,WUHU216DAVISVP2,2013-04-13 03:48:00,
2013-04-12 23:53:00,40.8,37.6,29.86,WSW,245,6.0,9.0,88,0.00,,OVC OVC///CB,0.43,WUHU216DAVISVP2,2013-04-13 03:53:00,
2013-04-12 23:58:00,40.8,37.6,29.86,WSW,248,5.0,9.0,88,0.00,,OVC OVC///CB,0.43,WUHU216DAVISVP2,2013-04-13 03:58:00,